Time,TemperatureF,DewpointF,PressureIn,WindDirection,WindDirectionDegrees,WindSpeedMPH,WindSpeedGustMPH,Humidity,HourlyPrecipIn,Conditions,Clouds,dailyrainin,SoftwareType,DateUTC
2013-03-10 00:02:00,-999.0,-99.9,30.28,NNE,29,2.0,4.0,-999,-99.99,,,-99.99,,2013-03-10 05:02:00,
2013-03-10 00:11:00,-999.0,-99.9,30.28,NE,42,4.0,6.0,-999,-99.99,,,-99.99,,2013-03-10 05:11:00,
2013-03-10 00:22:00,44.0,-99.9,30.28,North,-999,-999.0,-999.0,-999,-99.99,,,-99.99,,2013-03-10 05:22:00,
2013-03-10 00:32:00,44.0,-99.9,30.29,North,-999,-999.0,-999.0,-999,-99.99,,,-99.99,,2013-03-10 05:32:00,
2013-03-10 00:42:00,-999.0,-99.9,30.28,NE,52,5.0,7.0,-999,-99.99,,,-99.99,,2013-03-10 05:42:00,
2013-03-10 00:52:00,44.0,-99.9,30.28,North,-999,-999.0,-999.0,-999,-99.99,,,-99.99,,2013-03-10 05:52:00,
2013-03-10 01:02:00,-999.0,-99.9,30.28,NE,44,5.0,9.0,-999,-99.99,,,-99.99,,2013-03-10 06:02:00,
2013-03-10 01:11:00,-999.0,-99.9,30.28,NE,54,5.0,8.0,-999,-99.99,,,-99.99,,2013-03-10 06:11:00,
2013-03-10 01:22:00,-999.0,-99.9,30.29,NE,42,5.0,8.0,-999,-99.99,,,-99.99,,2013-03-10 06:22:00,
2013-03-10 01:32:00,42.0,-99.9,30.29,North,-999,-999.0,-999.0,-999,-99.99,,,-99.99,,2013-03-10 06:32:00,
2013-03-10 01:42:00,42.0,-99.9,30.28,North,-999,-999.0,-999.0,-999,-99.99,,,-99.99,,2013-03-10 06:42:00,
2013-03-10 01:52:00,-999.0,-99.9,30.28,NE,35,4.0,7.0,-999,-99.99,,,-99.99,,2013-03-10 06:52:00,
2013-03-10 03:02:00,42.0,-99.9,30.28,North,-999,-999.0,-999.0,-999,-99.99,,,-99.99,,2013-03-10 07:02:00,
2013-03-10 03:21:00,-999.0,-99.9,30.29,NNE,15,2.0,6.0,-999,-99.99,,,-99.99,,2013-03-10 07:21:00,
2013-03-10 03:32:00,42.0,-99.9,30.29,North,-999,-999.0,-999.0,-999,-99.99,,,-99.99,,2013-03-10 07:32:00,
2013-03-10 03:42:00,-999.0,-99.9,30.29,NNW,347,4.0,5.0,-999,-99.99,,,-99.99,,2013-03-10 07:42:00,
2013-03-10 03:52:00,42.0,-99.9,30.29,North,-999,-999.0,-999.0,-999,-99.99,,,-99.99,,2013-03-10 07:52:00,
2013-03-10 04:02:00,42.0,-99.9,30.28,North,-999,-999.0,-999.0,-999,-99.99,,,-99.99,,2013-03-10 08:02:00,
2013-03-10 04:12:00,42.0,-99.9,30.28,North,-999,-999.0,-999.0,-999,-99.99,,,-99.99,,2013-03-10 08:12:00,
2013-03-10 04:21:00,-999.0,-99.9,30.27,North,355,4.0,5.0,-999,-99.99,,,-99.99,,2013-03-10 08:21:00,
2013-03-10 04:32:00,-999.0,-99.9,30.27,NNE,18,2.0,5.0,-999,-99.99,,,-99.99,,2013-03-10 08:32:00,
2013-03-10 04:42:00,-999.0,-99.9,30.26,NNE,14,2.0,3.0,-999,-99.99,,,-99.99,,2013-03-10 08:42:00,
2013-03-10 04:52:00,-999.0,-99.9,30.26,North,351,4.0,6.0,-999,-99.99,,,-99.99,,2013-03-10 08:52:00,
2013-03-10 05:02:00,-999.0,-99.9,30.26,North,359,3.0,5.0,-999,-99.99,,,-99.99,,2013-03-10 09:02:00,
2013-03-10 05:21:00,42.0,-99.9,30.26,North,-999,-999.0,-999.0,-999,-99.99,,,-99.99,,2013-03-10 09:21:00,
2013-03-10 05:32:00,42.0,-99.9,30.26,North,-999,-999.0,-999.0,-999,-99.99,,,-99.99,,2013-03-10 09:32:00,
2013-03-10 05:42:00,-999.0,-99.9,30.25,North,6,3.0,5.0,-999,-99.99,,,-99.99,,2013-03-10 09:42:00,
2013-03-10 05:52:00,42.0,-99.9,30.26,North,-999,-999.0,-999.0,-999,-99.99,,,-99.99,,2013-03-10 09:52:00,
2013-03-10 06:02:00,41.0,-99.9,30.26,North,-999,-999.0,-999.0,-999,-99.99,,,-99.99,,2013-03-10 10:02:00,
2013-03-10 06:11:00,40.0,-99.9,30.26,North,-999,-999.0,-999.0,-999,-99.99,,,-99.99,,2013-03-10 10:11:00,
2013-03-10 06:22:00,40.0,-99.9,30.27,North,-999,-999.0,-999.0,-999,-99.99,,,-99.99,,2013-03-10 10:22:00,
2013-03-10 06:32:00,40.0,-99.9,30.27,North,-999,-999.0,-999.0,-999,-99.99,,,-99.99,,2013-03-10 10:32:00,
2013-03-10 06:52:00,-999.0,-99.9,30.27,NNE,32,3.0,5.0,-999,-99.99,,,-99.99,,2013-03-10 10:52:00,
2013-03-10 07:02:00,40.0,-99.9,30.27,North,-999,-999.0,-999.0,-999,-99.99,,,-99.99,,2013-03-10 11:02:00,
2013-03-10 07:12:00,-999.0,-99.9,30.27,NNE,27,3.0,6.0,-999,-99.99,,,-99.99,,2013-03-10 11:12:00,
2013-03-10 07:22:00,-999.0,-99.9,30.28,NNW,336,3.0,4.0,-999,-99.99,,,-99.99,,2013-03-10 11:22:00,
2013-03-10 07:32:00,-999.0,-99.9,30.28,North,353,5.0,6.0,-999,-99.99,,,-99.99,,2013-03-10 11:32:00,
2013-03-10 07:42:00,-999.0,-99.9,30.29,North,352,4.0,6.0,-999,-99.99,,,-99.99,,2013-03-10 11:42:00,
2013-03-10 07:52:00,-999.0,-99.9,30.29,North,351,4.0,7.0,-999,-99.99,,,-99.99,,2013-03-10 11:52:00,
2013-03-10 08:02:00,43.0,-99.9,30.29,North,-999,-999.0,-999.0,-999,-99.99,,,-99.99,,2013-03-10 12:02:00,
2013-03-10 08:11:00,-999.0,-99.9,30.29,NNE,26,3.0,6.0,-999,-99.99,,,-99.99,,2013-03-10 12:11:00,
2013-03-10 08:21:00,-999.0,-99.9,30.28,NNE,22,2.0,5.0,-999,-99.99,,,-99.99,,2013-03-10 12:21:00,
2013-03-10 08:32:00,43.0,-99.9,30.28,North,-999,-999.0,-999.0,-999,-99.99,,,-99.99,,2013-03-10 12:32:00,
2013-03-10 08:42:00,44.0,-99.9,30.28,North,-999,-999.0,-999.0,-999,-99.99,,,-99.99,,2013-03-10 12:42:00,
2013-03-10 08:52:00,44.0,-99.9,30.29,North,-999,-999.0,-999.0,-999,-99.99,,,-99.99,,2013-03-10 12:52:00,
2013-03-10 09:01:00,-999.0,-99.9,30.29,North,4,4.0,6.0,-999,-99.99,,,-99.99,,2013-03-10 13:01:00,
2013-03-10 09:11:00,45.0,-99.9,30.30,NNE,17,3.0,7.0,-999,-99.99,,,-99.99,,2013-03-10 13:11:00,
2013-03-10 09:21:00,-999.0,-99.9,30.30,NNE,17,3.0,4.0,-999,-99.99,,,-99.99,,2013-03-10 13:21:00,
2013-03-10 09:32:00,-999.0,-99.9,30.30,NNE,19,3.0,7.0,-999,-99.99,,,-99.99,,2013-03-10 13:32:00,
2013-03-10 09:42:00,47.0,-99.9,30.29,NNE,30,3.0,8.0,-999,-99.99,,,-99.99,,2013-03-10 13:42:00,
2013-03-10 09:52:00,-999.0,-99.9,30.30,NNE,25,5.0,8.0,-999,-99.99,,,-99.99,,2013-03-10 13:52:00,
2013-03-10 10:02:00,-999.0,-99.9,30.30,NNE,31,4.0,8.0,-999,-99.99,,,-99.99,,2013-03-10 14:02:00,
2013-03-10 10:22:00,-999.0,-99.9,30.30,NNE,22,6.0,11.0,-999,-99.99,,,-99.99,,2013-03-10 14:22:00,
2013-03-10 10:32:00,49.0,-99.9,30.30,North,-999,-999.0,-999.0,-999,-99.99,,,-99.99,,2013-03-10 14:32:00,
2013-03-10 10:42:00,-999.0,-99.9,30.30,NNE,17,4.0,10.0,-999,-99.99,,,-99.99,,2013-03-10 14:42:00,
2013-03-10 10:52:00,-999.0,-99.9,30.30,NNE,27,4.0,11.0,-999,-99.99,,,-99.99,,2013-03-10 14:52:00,
2013-03-10 11:01:00,-999.0,-99.9,30.30,ENE,66,8.0,12.0,-999,-99.99,,,-99.99,,2013-03-10 15:01:00,
2013-03-10 11:11:00,52.0,-99.9,30.30,North,-999,-999.0,-999.0,-999,-99.99,,,-99.99,,2013-03-10 15:11:00,
2013-03-10 11:21:00,-999.0,-99.9,30.30,NE,42,6.0,12.0,-999,-99.99,,,-99.99,,2013-03-10 15:21:00,
2013-03-10 11:32:00,-999.0,-99.9,30.30,NE,42,4.0,10.0,-999,-99.99,,,-99.99,,2013-03-10 15:32:00,
2013-03-10 11:52:00,-999.0,-99.9,30.31,ENE,66,4.0,8.0,-999,-99.99,,,-99.99,,2013-03-10 15:52:00,
2013-03-10 12:02:00,-999.0,-99.9,30.31,NE,47,5.0,11.0,-999,-99.99,,,-99.99,,2013-03-10 16:02:00,
2013-03-10 12:12:00,-999.0,-99.9,30.31,ENE,70,6.0,9.0,-999,-99.99,,,-99.99,,2013-03-10 16:12:00,
2013-03-10 12:22:00,-999.0,-99.9,30.31,East,84,6.0,10.0,-999,-99.99,,,-99.99,,2013-03-10 16:22:00,
2013-03-10 12:32:00,-999.0,-99.9,30.31,NNE,29,4.0,9.0,-999,-99.99,,,-99.99,,2013-03-10 16:32:00,
2013-03-10 12:42:00,55.0,-99.9,30.31,North,-999,-999.0,-999.0,-999,-99.99,,,-99.99,,2013-03-10 16:42:00,
2013-03-10 12:52:00,-999.0,-99.9,30.31,East,83,6.0,8.0,-999,-99.99,,,-99.99,,2013-03-10 16:52:00,
2013-03-10 13:01:00,56.0,-99.9,30.31,North,-999,-999.0,-999.0,-999,-99.99,,,-99.99,,2013-03-10 17:01:00,
2013-03-10 13:11:00,-999.0,-99.9,30.31,NE,43,4.0,9.0,-999,-99.99,,,-99.99,,2013-03-10 17:11:00,
2013-03-10 13:21:00,57.0,-99.9,30.30,North,-999,-999.0,-999.0,-999,-99.99,,,-99.99,,2013-03-10 17:21:00,
2013-03-10 13:32:00,58.0,-99.9,30.30,North,-999,-999.0,-999.0,-999,-99.99,,,-99.99,,2013-03-10 17:32:00,
2013-03-10 13:41:00,57.0,-99.9,30.30,North,-999,-999.0,-999.0,-999,-99.99,,,-99.99,,2013-03-10 17:41:00,
2013-03-10 13:52:00,56.0,-99.9,30.29,North,-999,-999.0,-999.0,-999,-99.99,,,-99.99,,2013-03-10 17:52:00,
2013-03-10 14:01:00,-999.0,-99.9,30.29,East,87,9.0,11.0,-999,-99.99,,,-99.99,,2013-03-10 18:01:00,
2013-03-10 14:12:00,-999.0,-99.9,30.29,East,86,8.0,11.0,-999,-99.99,,,-99.99,,2013-03-10 18:12:00,
2013-03-10 14:22:00,-999.0,-99.9,30.28,East,90,6.0,11.0,-999,-99.99,,,-99.99,,2013-03-10 18:22:00,
2013-03-10 14:32:00,57.0,-99.9,30.28,North,-999,-999.0,-999.0,-999,-99.99,,,-99.99,,2013-03-10 18:32:00,
2013-03-10 14:42:00,-999.0,-99.9,30.28,ESE,112,10.0,14.0,-999,-99.99,,,-99.99,,2013-03-10 18:42:00,
2013-03-10 14:52:00,-999.0,-99.9,30.27,ESE,107,9.0,13.0,-999,-99.99,,,-99.99,,2013-03-10 18:52:00,
2013-03-10 15:02:00,-999.0,-99.9,30.26,East,91,10.0,13.0,-999,-99.99,,,-99.99,,2013-03-10 19:02:00,
2013-03-10 15:11:00,58.0,-99.9,30.26,North,-999,-999.0,-999.0,-999,-99.99,,,-99.99,,2013-03-10 19:11:00,
2013-03-10 15:22:00,-999.0,-99.9,30.25,East,86,8.0,14.0,-999,-99.99,,,-99.99,,2013-03-10 19:22:00,
2013-03-10 15:32:00,57.0,-99.9,30.25,North,-999,-999.0,-999.0,-999,-99.99,,,-99.99,,2013-03-10 19:32:00,
2013-03-10 15:42:00,-999.0,-99.9,30.25,East,80,10.0,14.0,-999,-99.99,,,-99.99,,2013-03-10 19:42:00,
2013-03-10 15:53:00,-999.0,-99.9,30.25,NE,50,7.0,13.0,-999,-99.99,,,-99.99,,2013-03-10 19:53:00,
2013-03-10 16:02:00,-999.0,-99.9,30.26,ENE,71,8.0,13.0,-999,-99.99,,,-99.99,,2013-03-10 20:02:00,
2013-03-10 16:13:00,-999.0,-99.9,30.26,ENE,77,9.0,12.0,-999,-99.99,,,-99.99,,2013-03-10 20:13:00,
2013-03-10 16:22:00,-999.0,-99.9,30.26,East,80,7.0,16.0,-999,-99.99,,,-99.99,,2013-03-10 20:22:00,
2013-03-10 16:33:00,-999.0,-99.9,30.26,ENE,62,9.0,15.0,-999,-99.99,,,-99.99,,2013-03-10 20:33:00,
2013-03-10 16:43:00,-999.0,-99.9,30.26,ENE,72,8.0,13.0,-999,-99.99,,,-99.99,,2013-03-10 20:43:00,
2013-03-10 16:53:00,60.0,-99.9,30.26,North,-999,-999.0,-999.0,-999,-99.99,,,-99.99,,2013-03-10 20:53:00,
2013-03-10 17:02:00,-999.0,-99.9,30.25,ENE,70,7.0,13.0,-999,-99.99,,,-99.99,,2013-03-10 21:02:00,
2013-03-10 17:12:00,-999.0,-99.9,30.25,East,93,10.0,12.0,-999,-99.99,,,-99.99,,2013-03-10 21:12:00,
2013-03-10 17:23:00,59.0,-99.9,30.25,North,-999,-999.0,-999.0,-999,-99.99,,,-99.99,,2013-03-10 21:23:00,
2013-03-10 17:33:00,59.0,-99.9,30.25,North,-999,-999.0,-999.0,-999,-99.99,,,-99.99,,2013-03-10 21:33:00,
2013-03-10 17:43:00,59.0,-99.9,30.25,ENE,68,6.0,11.0,-999,-99.99,,,-99.99,,2013-03-10 21:43:00,
2013-03-10 17:53:00,-999.0,-99.9,30.25,East,79,6.0,9.0,-999,-99.99,,,-99.99,,2013-03-10 21:53:00,
2013-03-10 18:03:00,-999.0,-99.9,30.25,East,99,7.0,9.0,-999,-99.99,,,-99.99,,2013-03-10 22:03:00,
2013-03-10 18:12:00,-999.0,-99.9,30.25,ESE,114,7.0,9.0,-999,-99.99,,,-99.99,,2013-03-10 22:12:00,
2013-03-10 18:23:00,56.0,-99.9,30.25,North,-999,-999.0,-999.0,-999,-99.99,,,-99.99,,2013-03-10 22:23:00,
2013-03-10 18:33:00,56.0,-99.9,30.25,North,-999,-999.0,-999.0,-999,-99.99,,,-99.99,,2013-03-10 22:33:00,
2013-03-10 18:43:00,56.0,-99.9,30.25,North,-999,-999.0,-999.0,-999,-99.99,,,-99.99,,2013-03-10 22:43:00,
2013-03-10 18:53:00,-999.0,-99.9,30.26,East,83,8.0,12.0,-999,-99.99,,,-99.99,,2013-03-10 22:53:00,
2013-03-10 19:03:00,55.0,-99.9,30.26,North,-999,-999.0,-999.0,-999,-99.99,,,-99.99,,2013-03-10 23:03:00,
2013-03-10 19:13:00,54.0,-99.9,30.26,North,-999,-999.0,-999.0,-999,-99.99,,,-99.99,,2013-03-10 23:13:00,
2013-03-10 19:23:00,-999.0,-99.9,30.27,ENE,72,7.0,10.0,-999,-99.99,,,-99.99,,2013-03-10 23:23:00,
2013-03-10 19:33:00,-999.0,-99.9,30.27,East,82,6.0,9.0,-999,-99.99,,,-99.99,,2013-03-10 23:33:00,
2013-03-10 19:43:00,-999.0,-99.9,30.27,ENE,58,7.0,8.0,-999,-99.99,,,-99.99,,2013-03-10 23:43:00,
2013-03-10 19:53:00,-999.0,-99.9,30.27,ENE,76,7.0,8.0,-999,-99.99,,,-99.99,,2013-03-10 23:53:00,
2013-03-10 20:03:00,-999.0,-99.9,30.27,ENE,74,5.0,9.0,-999,-99.99,,,-99.99,,2013-03-11 00:03:00,
2013-03-10 20:13:00,-999.0,-99.9,30.27,East,80,5.0,8.0,-999,-99.99,,,-99.99,,2013-03-11 00:13:00,
2013-03-10 20:23:00,-999.0,-99.9,30.28,ENE,67,4.0,7.0,-999,-99.99,,,-99.99,,2013-03-11 00:23:00,
2013-03-10 20:33:00,51.0,-99.9,30.27,North,-999,-999.0,-999.0,-999,-99.99,,,-99.99,,2013-03-11 00:33:00,
2013-03-10 20:43:00,-999.0,-99.9,30.27,ENE,68,5.0,8.0,-999,-99.99,,,-99.99,,2013-03-11 00:43:00,
2013-03-10 20:53:00,51.0,-99.9,30.27,North,-999,-999.0,-999.0,-999,-99.99,,,-99.99,,2013-03-11 00:53:00,
2013-03-10 21:03:00,51.0,-99.9,30.28,North,-999,-999.0,-999.0,-999,-99.99,,,-99.99,,2013-03-11 01:03:00,
2013-03-10 21:13:00,51.0,-99.9,30.28,North,-999,-999.0,-999.0,-999,-99.99,,,-99.99,,2013-03-11 01:13:00,
2013-03-10 21:23:00,-999.0,-99.9,30.28,NE,43,3.0,5.0,-999,-99.99,,,-99.99,,2013-03-11 01:23:00,
2013-03-10 21:33:00,50.0,-99.9,30.28,North,-999,-999.0,-999.0,-999,-99.99,,,-99.99,,2013-03-11 01:33:00,
2013-03-10 21:53:00,-999.0,-99.9,30.27,NNE,31,2.0,5.0,-999,-99.99,,,-99.99,,2013-03-11 01:53:00,
2013-03-10 22:03:00,-999.0,-99.9,30.27,NNE,26,2.0,4.0,-999,-99.99,,,-99.99,,2013-03-11 02:03:00,
2013-03-10 22:13:00,-999.0,-99.9,30.28,NNE,29,3.0,4.0,-999,-99.99,,,-99.99,,2013-03-11 02:13:00,
2013-03-10 22:23:00,-999.0,-99.9,30.27,NE,35,3.0,5.0,-999,-99.99,,,-99.99,,2013-03-11 02:23:00,
2013-03-10 22:32:00,48.0,-99.9,30.27,North,-999,-999.0,-999.0,-999,-99.99,,,-99.99,,2013-03-11 02:32:00,
2013-03-10 22:42:00,48.0,-99.9,30.27,North,-999,-999.0,-999.0,-999,-99.99,,,-99.99,,2013-03-11 02:42:00,
2013-03-10 22:53:00,48.0,-99.9,30.27,North,-999,-999.0,-999.0,-999,-99.99,,,-99.99,,2013-03-11 02:53:00,
2013-03-10 23:02:00,48.0,-99.9,30.28,North,-999,-999.0,-999.0,-999,-99.99,,,-99.99,,2013-03-11 03:02:00,
2013-03-10 23:22:00,-999.0,-99.9,30.28,NNE,22,3.0,4.0,-999,-99.99,,,-99.99,,2013-03-11 03:22:00,
2013-03-10 23:32:00,47.0,-99.9,30.27,North,-999,-999.0,-999.0,-999,-99.99,,,-99.99,,2013-03-11 03:32:00,
2013-03-10 23:43:00,-999.0,-99.9,30.27,NE,43,2.0,3.0,-999,-99.99,,,-99.99,,2013-03-11 03:43:00,
2013-03-10 23:53:00,47.0,-99.9,30.27,North,-999,-999.0,-999.0,-999,-99.99,,,-99.99,,2013-03-11 03:53:00,